Wind_Speed
26 26 26 26 26 25 25 25 26 26 27 28 29 29 30 30 32 33 33 33 34 35 35 36 37 37 39 39 40 40 41 41 41 40 40 41 41 41
24 24 24 24 25 25 25 26 27 27 28 28 28 29 30 30 31 32 34 33 33 34 35 35 36 37 38 39 39 40 40 42 42 42 42 42 42 42
22 22 23 23 24 25 25 26 26 28 28 28 28 28 28 29 30 31 33 33 33 34 35 36 36 37 37 38 39 40 40 41 42 43 43 43 43 43
22 21 21 22 22 23 24 25 25 27 28 27 27 28 28 28 29 30 31 32 32 33 34 36 37 37 38 38 38 39 40 41 41 42 42 43 44 43
21 21 21 21 22 23 23 23 23 25 26 26 26 26 27 27 28 30 30 31 32 32 33 35 37 37 38 38 39 39 39 40 41 42 42 42 43 44
20 21 21 21 22 22 22 23 23 24 25 25 24 24 24 25 27 28 28 28 30 31 32 33 34 35 36 37 38 38 38 39 40 41 43 43 43 44
21 21 21 21 21 21 22 22 23 24 25 25 24 25 24 24 25 26 27 27 28 29 30 30 30 32 33 34 36 38 38 39 40 41 42 43 43 44
20 20 21 20 21 21 22 22 23 24 24 24 23 24 24 24 25 26 26 26 27 28 29 29 29 30 31 32 34 36 37 38 39 40 42 43 44 44
21 21 21 20 21 22 22 23 24 24 25 24 24 24 24 24 24 24 25 26 26 27 29 30 30 30 31 31 32 34 36 38 39 39 40 41 43 44
22 21 21 21 22 23 23 23 25 25 24 24 23 22 23 23 24 24 25 26 26 27 28 30 31 32 33 33 33 33 34 36 38 40 41 41 42 44
22 22 23 23 23 24 24 24 25 24 24 23 22 23 23 24 24 24 24 25 25 26 27 29 30 31 32 32 34 35 35 36 37 39 40 41 42 43
23 23 23 24 24 24 25 25 25 24 23 23 23 23 23 23 23 23 24 24 24 24 26 27 29 30 29 30 32 33 34 35 36 37 39 40 41 42
24 24 23 24 25 25 25 25 24 23 23 22 22 22 22 21 21 21 23 23 24 24 25 26 27 27 27 27 28 29 31 32 34 35 37 37 38 39
24 24 24 24 25 25 25 25 24 24 23 22 21 21 21 20 20 19 20 21 22 23 24 25 25 26 26 27 27 28 29 30 31 32 34 35 36 37
25 25 25 25 26 26 25 25 24 24 23 22 21 21 21 20 20 20 20 21 22 22 23 23 23 24 24 26 27 28 29 29 30 31 31 32 34 35
26 25 25 25 25 25 25 25 24 24 23 22 22 21 21 21 21 21 21 21 22 22 22 21 22 23 23 24 25 25 26 27 28 29 30 30 31 33
26 26 25 25 24 25 25 25 24 24 23 22 21 20 20 21 20 21 21 21 21 21 20 20 21 21 23 23 24 24 25 25 26 27 28 29 29 30
26 26 25 25 25 25 25 25 25 25 24 23 22 21 21 20 20 20 20 20 20 19 19 18 19 19 19 21 22 22 23 24 25 26 26 27 27 28
26 25 25 25 25 25 26 26 26 26 25 23 22 21 20 20 20 20 19 19 20 19 18 18 18 18 18 18 19 20 21 21 23 24 25 26 26 27
26 26 25 26 26 26 26 27 27 26 25 24 23 21 21 20 20 20 20 19 19 19 19 18 18 18 17 16 16 17 18 18 19 21 22 23 24 25
27 26 26 26 26 27 27 27 28 27 26 25 23 22 21 21 21 21 20 19 19 18 19 18 17 17 16 14 13 14 15 16 16 17 18 20 21 22
28 27 26 27 27 27 28 28 28 28 27 26 24 23 22 22 21 20 19 19 18 18 18 17 16 15 14 12 11 11 11 12 14 15 16 17 18 19
28 28 27 27 28 28 29 29 28 28 28 27 25 24 23 22 21 20 19 19 19 18 17 16 15 14 13 12 11 11 11 11 12 13 13 14 15 16
Wind_Direction
298 298 296 295 293 291 290 287 286 284 282 282 280 276 274 272 269 266 265 266 264 261 258 255 253 251 249 248 247 247 246 246 245 246 246 245 245 245
301 299 297 296 295 293 291 288 285 284 284 284 282 279 277 273 271 269 266 267 265 263 260 257 254 252 250 249 247 247 247 246 245 245 245 245 244 244
303 300 299 300 299 297 294 292 289 287 285 285 283 281 279 275 273 272 270 267 266 264 261 259 257 254 253 251 248 247 248 247 246 245 246 245 243 244
304 302 302 304 304 302 299 295 293 291 290 287 285 281 279 276 275 274 272 268 266 265 262 260 259 256 254 253 250 248 248 249 248 248 247 246 245 245
309 305 304 305 305 303 302 298 297 296 294 291 287 284 281 279 277 276 274 271 268 266 262 259 257 256 255 254 252 249 247 248 248 248 247 246 246 246
314 310 309 308 306 306 304 301 300 299 295 292 289 285 283 280 277 276 274 271 268 265 263 259 256 255 254 254 252 250 249 247 247 247 247 246 245 245
316 314 312 311 311 310 308 306 304 302 299 295 292 288 286 283 278 276 275 274 270 267 265 262 257 254 253 252 251 250 251 250 248 247 246 245 245 244
321 318 315 313 312 313 312 310 309 307 304 299 295 291 288 287 284 279 277 275 273 269 267 264 261 258 256 253 251 250 250 249 248 247 247 246 245 244
325 322 319 318 316 315 313 313 312 309 306 304 299 295 291 291 289 285 281 278 276 273 270 268 265 262 257 256 254 252 251 250 249 248 247 246 244 243
330 328 325 325 323 321 319 316 315 312 309 306 302 299 295 292 291 288 284 280 278 275 273 269 268 266 261 258 256 255 253 251 250 249 247 247 246 244
334 332 328 325 324 322 319 318 317 314 311 308 304 301 299 296 294 290 288 283 279 277 275 273 269 267 263 259 256 255 255 254 251 250 249 247 246 245
334 332 328 326 326 325 322 320 319 316 313 310 306 303 301 298 295 292 290 287 283 281 278 274 271 269 266 260 257 255 255 254 251 249 249 249 247 246
336 334 333 330 328 328 326 324 321 318 316 313 310 307 303 301 299 297 295 291 286 284 281 277 274 273 270 264 260 258 257 255 252 250 249 250 250 248
340 339 338 335 333 331 330 328 325 322 320 317 313 312 309 305 304 304 302 298 293 288 283 279 277 274 270 266 263 260 259 257 256 254 252 251 251 250
342 341 340 338 336 335 335 333 330 327 324 321 318 315 312 309 306 305 304 301 299 295 288 283 279 275 272 269 265 260 258 257 254 253 252 252 251 251
345 342 341 341 342 342 340 338 335 332 329 327 323 319 316 313 310 311 311 308 305 301 294 288 283 278 274 271 268 264 259 256 254 253 251 251 251 251
346 345 343 343 344 344 343 341 338 336 334 331 327 323 321 320 317 315 315 313 310 307 301 295 289 284 279 274 270 266 262 258 254 251 250 249 250 251
346 346 345 344 345 345 345 344 343 340 337 335 331 328 325 325 322 320 319 317 314 311 307 302 296 289 282 278 272 268 263 260 256 253 250 249 250 252
346 346 345 345 345 345 345 345 344 343 340 337 333 330 328 327 327 325 323 322 320 317 313 309 304 299 290 283 277 271 267 260 256 254 252 251 250 249
347 346 345 345 345 345 345 345 345 343 341 338 335 332 329 327 327 326 326 325 324 322 319 315 311 306 301 293 284 276 271 265 261 257 253 251 250 250
350 348 347 346 346 345 345 344 345 344 342 339 335 332 329 327 326 325 325 325 325 324 322 320 316 312 306 297 289 282 275 269 263 258 255 254 253 253
352 349 347 346 346 346 345 345 345 345 344 342 338 334 330 328 326 325 325 325 324 324 324 322 320 318 313 304 297 291 283 272 267 263 259 258 257 255
351 350 349 348 347 346 346 346 346 346 345 344 341 338 335 331 327 325 324 325 325 326 326 325 324 321 317 309 302 297 293 285 277 271 268 266 264 261
Height
5714 5712 5710 5707 5705 5704 5702 5701 5701 5699 5699 5698 5696 5696 5695 5695 5695 5696 5696 5697 5698 5699 5701 5703 5705 5708 5710 5714 5717 5720 5724 5728 5731 5735 5739 5742 5746 5749
5707 5705 5703 5701 5699 5697 5695 5694 5692 5691 5690 5689 5688 5687 5686 5686 5685 5685 5686 5687 5688 5689 5690 5692 5694 5696 5699 5702 5706 5709 5713 5716 5720 5724 5727 5731 5735 5738
5701 5699 5697 5694 5692 5690 5688 5686 5684 5683 5681 5680 5678 5677 5677 5676 5675 5675 5675 5676 5677 5678 5679 5681 5683 5685 5688 5691 5694 5698 5701 5705 5708 5712 5716 5720 5723 5727
5695 5693 5690 5688 5685 5683 5680 5678 5677 5675 5673 5671 5670 5668 5667 5666 5666 5665 5665 5666 5666 5667 5668 5670 5672 5674 5677 5680 5683 5686 5690 5693 5697 5701 5705 5709 5712 5715
5689 5687 5684 5681 5679 5676 5674 5672 5669 5667 5665 5663 5661 5660 5658 5657 5657 5656 5656 5656 5656 5656 5657 5659 5660 5663 5665 5668 5671 5674 5678 5682 5685 5689 5692 5696 5700 5704
5684 5681 5678 5676 5673 5670 5668 5665 5662 5659 5657 5655 5653 5651 5650 5649 5648 5647 5647 5647 5646 5646 5647 5648 5650 5652 5654 5657 5660 5663 5666 5670 5673 5677 5681 5684 5688 5692
5679 5676 5673 5670 5667 5665 5662 5659 5656 5653 5650 5647 5645 5643 5642 5640 5639 5639 5638 5638 5637 5637 5638 5639 5640 5642 5644 5646 5649 5652 5655 5658 5661 5665 5668 5672 5676 5680
5675 5672 5669 5666 5663 5660 5656 5653 5650 5646 5643 5640 5638 5636 5634 5632 5631 5630 5629 5629 5629 5629 5629 5629 5630 5632 5633 5635 5638 5640 5643 5646 5649 5652 5656 5660 5664 5668
5671 5668 5664 5661 5658 5654 5651 5648 5644 5640 5636 5633 5631 5628 5626 5625 5623 5622 5620 5620 5620 5619 5619 5620 5621 5622 5623 5625 5627 5629 5631 5634 5637 5640 5644 5647 5651 5655
5668 5664 5660 5656 5653 5649 5646 5642 5638 5634 5630 5627 5624 5621 5619 5617 5615 5613 5612 5611 5611 5610 5609 5610 5611 5611 5612 5614 5616 5617 5619 5621 5624 5627 5631 5634 5638 5642
5664 5660 5656 5652 5648 5644 5640 5636 5632 5627 5623 5619 5617 5614 5611 5609 5607 5605 5604 5603 5602 5601 5600 5600 5600 5601 5602 5603 5604 5605 5607 5609 5611 5614 5617 5621 5624 5628
5660 5655 5651 5647 5642 5638 5634 5630 5626 5621 5617 5613 5610 5607 5604 5601 5599 5597 5595 5594 5593 5593 5591 5590 5590 5590 5591 5592 5593 5594 5595 5597 5600 5602 5605 5608 5611 5614
5656 5651 5646 5641 5637 5633 5628 5624 5619 5615 5611 5607 5603 5600 5597 5594 5591 5589 5587 5585 5584 5583 5582 5580 5580 5580 5580 5582 5583 5583 5584 5586 5588 5590 5593 5596 5599 5602
5651 5647 5642 5637 5632 5627 5623 5618 5613 5609 5605 5601 5597 5594 5591 5588 5585 5582 5580 5578 5576 5575 5573 5572 5571 5570 5571 5572 5573 5573 5574 5575 5577 5579 5582 5584 5587 5590
5648 5643 5638 5633 5628 5623 5618 5613 5608 5604 5599 5596 5592 5588 5585 5582 5579 5576 5573 5571 5569 5566 5565 5563 5562 5562 5561 5562 5563 5563 5564 5565 5566 5569 5571 5573 5576 5579
5645 5640 5635 5629 5624 5619 5614 5609 5604 5599 5595 5591 5587 5583 5579 5576 5573 5571 5568 5565 5562 5560 5558 5556 5554 5553 5553 5552 5553 5554 5554 5556 5557 5559 5561 5563 5566 5568
5642 5637 5632 5627 5622 5617 5611 5606 5601 5596 5591 5586 5582 5578 5575 5572 5568 5565 5562 5559 5556 5554 5551 5549 5547 5545 5544 5544 5544 5544 5545 5546 5547 5549 5551 5554 5556 5559
5639 5634 5629 5624 5619 5614 5609 5603 5598 5592 5587 5583 5578 5574 5571 5567 5564 5560 5557 5554 5551 5548 5545 5543 5541 5539 5538 5536 5536 5536 5536 5537 5538 5540 5542 5545 5547 5549
5637 5632 5627 5622 5617 5611 5606 5600 5595 5589 5584 5579 5574 5570 5566 5563 5559 5556 5553 5549 5546 5543 5540 5537 5535 5533 5531 5531 5529 5528 5528 5529 5530 5532 5533 5536 5538 5540
5635 5629 5624 5619 5614 5609 5603 5598 5592 5586 5581 5576 5571 5566 5562 5559 5555 5552 5548 5545 5542 5538 5535 5532 5530 5527 5525 5524 5523 5522 5521 5522 5523 5524 5526 5528 5530 5532
5633 5628 5622 5617 5612 5606 5601 5595 5589 5583 5578 5573 5567 5563 5559 5555 5551 5548 5544 5540 5537 5534 5531 5528 5525 5522 5520 5518 5518 5517 5516 5516 5517 5517 5519 5521 5523 5525
5631 5625 5620 5615 5609 5604 5598 5592 5586 5580 5575 5569 5564 5559 5555 5551 5547 5543 5540 5536 5533 5530 5527 5524 5521 5518 5516 5514 5513 5513 5512 5512 5512 5513 5514 5515 5516 5518
5629 5623 5618 5612 5606 5601 5595 5589 5583 5577 5571 5566 5560 5555 5551 5546 5543 5539 5535 5532 5529 5526 5523 5520 5517 5515 5513 5511 5510 5509 5509 5508 5508 5508 5509 5509 5510 5512